| time (UTC) | temp C | wind direction | speed KPH | gust KPH | rain 1hr cm | rain 24hr cm | rain mn cm | humidity % | barometer mb |
| 20260505194914 | 9 | 0 | 0.0 | 0.0 | 0.08 | 0.89 | 0.89 | 10 | 1007.1 |
| 20260505194413 | 9 | 0 | 0.0 | 0.0 | 0.08 | 0.89 | 0.89 | 10 | 1007.1 |
| 20260505192557 | 9 | 0 | 0.0 | 0.0 | 0.08 | 0.89 | 0.89 | 10 | 1007.0 |
| 20260505190007 | 9 | 0 | 0.0 | 0.0 | 0.10 | 0.86 | 0.86 | 10 | 1006.9 |
| 20260505185245 | 9 | 0 | 0.0 | 0.0 | 0.10 | 0.86 | 0.86 | 10 | 1006.9 |
| 20260505184239 | 9 | 0 | 0.0 | 0.0 | 0.10 | 0.84 | 0.84 | 10 | 1006.9 |
| 20260505183628 | 9 | 0 | 0.0 | 0.0 | 0.13 | 0.84 | 0.84 | 10 | 1006.9 |
| 20260505181059 | 9 | 0 | 0.0 | 0.0 | 0.13 | 0.79 | 0.79 | 10 | 1006.8 |
| 20260505175701 | 9 | 0 | 0.0 | 0.0 | 0.10 | 0.79 | 0.79 | 10 | 1006.8 |
| 20260505174200 | 9 | 0 | 0.0 | 0.0 | 0.08 | 0.76 | 0.76 | 10 | 1006.9 |
| 20260505173153 | 9 | 0 | 0.0 | 0.0 | 0.05 | 0.74 | 0.74 | 10 | 1006.8 |
| 20260505171232 | 10 | 0 | 0.0 | 0.0 | 0.03 | 0.71 | 0.71 | 10 | 1006.9 |
| 20260505164936 | 10 | 0 | 0.0 | 0.0 | 0.00 | 0.69 | 0.69 | 10 | 1006.9 |
| 20260505163231 | 10 | 0 | 0.0 | 0.0 | 0.00 | 0.69 | 0.69 | 10 | 1006.9 |
| 20260505162006 | 10 | 0 | 0.0 | 0.0 | 0.00 | 0.69 | 0.69 | 10 | 1007.0 |
| 20260505160422 | 10 | 0 | 0.0 | 0.0 | 0.00 | 0.69 | 0.69 | 10 | 1007.0 |
| 20260505152140 | 10 | 0 | 0.0 | 0.0 | 0.00 | 0.69 | 0.69 | 10 | 1007.2 |
| 20260505150633 | 10 | 0 | 0.0 | 0.0 | 0.00 | 0.71 | 0.69 | 10 | 1007.2 |
| 20260505124756 | 10 | 0 | 0.0 | 0.0 | 0.00 | 0.74 | 0.69 | 10 | 1007.9 |
| 20260505124230 | 10 | 0 | 0.0 | 0.0 | 0.00 | 0.74 | 0.69 | 10 | 1007.9 |
| 20260505122143 | 10 | 0 | 0.0 | 0.0 | 0.00 | 0.74 | 0.69 | 10 | 1007.8 |
| 20260505115742 | 10 | 0 | 0.0 | 0.0 | 0.00 | 0.74 | 0.69 | 10 | 1007.9 |
| 20260505113400 | 10 | 0 | 0.0 | 0.0 | 0.00 | 0.74 | 0.69 | 10 | 1008.0 |
| 20260505111808 | 10 | 0 | 0.0 | 0.0 | 0.00 | 0.74 | 0.69 | 10 | 1008.0 |
| 20260505101254 | 11 | 0 | 0.0 | 0.0 | 0.00 | 0.74 | 0.69 | 10 | 1008.3 |
| 20260505100139 | 10 | 0 | 0.0 | 0.0 | 0.00 | 0.74 | 0.69 | 10 | 1008.4 |
| 20260505095538 | 10 | 0 | 0.0 | 0.0 | 0.00 | 0.74 | 0.69 | 10 | 1008.4 |
| 20260505094927 | 10 | 0 | 0.0 | 0.0 | 0.00 | 0.74 | 0.69 | 10 | 1008.4 |
| 20260505094402 | 10 | 0 | 0.0 | 0.0 | 0.00 | 0.74 | 0.69 | 10 | 1008.4 |
| 20260505092746 | 10 | 0 | 0.0 | 0.0 | 0.00 | 0.74 | 0.69 | 10 | 1008.4 |
| 20260505092109 | 10 | 0 | 0.0 | 0.0 | 0.00 | 0.74 | 0.69 | 10 | 1008.3 |
| 20260505090759 | 10 | 0 | 0.0 | 0.0 | 0.00 | 0.74 | 0.69 | 10 | 1008.3 |
| 20260505090122 | 10 | 0 | 0.0 | 0.0 | 0.00 | 0.74 | 0.69 | 10 | 1008.4 |
| 20260505085337 | 10 | 0 | 0.0 | 0.0 | 0.00 | 0.74 | 0.69 | 10 | 1008.4 |
| 20260505084811 | 10 | 0 | 0.0 | 0.0 | 0.00 | 0.74 | 0.69 | 10 | 1008.5 |
| 20260505082059 | 10 | 0 | 0.0 | 0.0 | 0.00 | 0.74 | 0.69 | 10 | 1008.5 |
| 20260505080554 | 10 | 0 | 0.0 | 0.0 | 0.00 | 0.74 | 0.69 | 10 | 1008.6 |
| 20260505073558 | 10 | 0 | 0.0 | 0.0 | 0.00 | 0.74 | 0.69 | 10 | 1008.6 |
| 20260505072713 | 10 | 0 | 0.0 | 0.0 | 0.00 | 0.74 | 0.69 | 10 | 1008.6 |
| 20260505071557 | 11 | 0 | 0.0 | 0.0 | 0.03 | 0.74 | 0.69 | 10 | 1008.6 |
| 20260505071018 | 11 | 0 | 0.0 | 0.0 | 0.03 | 0.74 | 0.69 | 10 | 1008.6 |
| 20260505062628 | 11 | 0 | 0.0 | 0.0 | 0.05 | 0.74 | 0.69 | 10 | 1008.6 |
| 20260505061253 | 11 | 0 | 0.0 | 0.0 | 0.05 | 0.74 | 0.69 | 10 | 1008.6 |
| 20260505054847 | 11 | 0 | 0.0 | 0.0 | 0.15 | 0.71 | 0.66 | 10 | 1008.6 |
| 20260505052726 | 11 | 0 | 0.0 | 0.0 | 0.33 | 0.71 | 0.64 | 10 | 1008.6 |
| 20260505041722 | 11 | 0 | 0.0 | 0.0 | 0.38 | 0.43 | 0.38 | 10 | 1008.6 |
| 20260505035635 | 11 | 0 | 0.0 | 0.0 | 0.18 | 0.23 | 0.18 | 99 | 1008.7 |
| 20260505034714 | 11 | 0 | 0.0 | 0.0 | 0.13 | 0.18 | 0.13 | 99 | 1008.8 |
| 20260505033753 | 11 | 0 | 0.0 | 0.0 | 0.08 | 0.15 | 0.08 | 99 | 1008.8 |
| 20260505031937 | 11 | 0 | 0.0 | 0.0 | 0.03 | 0.08 | 0.03 | 99 | 1008.9 |
| 20260505030601 | 11 | 0 | 0.0 | 0.0 | 0.00 | 0.05 | 0.00 | 99 | 1009.1 |
| 20260505025926 | 11 | 0 | 0.0 | 0.0 | 0.00 | 0.05 | 0.00 | 99 | 1009.2 |
| 20260505023753 | 11 | 0 | 0.0 | 0.0 | 0.00 | 0.05 | 0.00 | 99 | 1009.2 |
| 20260505023009 | 11 | 0 | 0.0 | 0.0 | 0.00 | 0.05 | 0.00 | 99 | 1009.3 |
| 20260505022222 | 11 | 0 | 0.0 | 0.0 | 0.00 | 0.05 | 0.00 | 99 | 1009.3 |
| 20260505021547 | 11 | 0 | 0.0 | 0.0 | 0.00 | 0.05 | 0.00 | 99 | 1009.2 |
| 20260505020541 | 11 | 0 | 0.0 | 0.0 | 0.00 | 0.05 | 0.00 | 99 | 1009.2 |
| 20260505014324 | 11 | 0 | 0.0 | 0.0 | 0.00 | 0.05 | 0.00 | 99 | 1009.2 |
| 20260505013318 | 11 | 0 | 0.0 | 0.0 | 0.00 | 0.05 | 0.00 | 99 | 1009.2 |
| 20260505011145 | 11 | 0 | 0.0 | 0.0 | 0.00 | 0.05 | 0.00 | 99 | 1009.3 |
| 20260505005220 | 11 | 0 | 0.0 | 0.0 | 0.00 | 0.05 | 0.00 | 99 | 1009.4 |
| 20260505003954 | 11 | 0 | 0.0 | 0.0 | 0.00 | 0.05 | 0.00 | 99 | 1009.5 |
| 20260505003209 | 11 | 0 | 0.0 | 0.0 | 0.00 | 0.05 | 0.00 | 99 | 1009.6 |
| 20260505002448 | 11 | 0 | 0.0 | 0.0 | 0.00 | 0.05 | 0.00 | 99 | 1009.7 |
| 20260505001112 | 11 | 0 | 0.0 | 0.0 | 0.00 | 0.05 | 0.00 | 99 | 1009.9 |
| 20260504235432 | 11 | 0 | 0.0 | 0.0 | 0.00 | 0.05 | 0.00 | 98 | 1010.0 |
| 20260504232526 | 11 | 0 | 0.0 | 0.0 | 0.00 | 0.05 | 0.00 | 98 | 1010.1 |
| 20260504222857 | 11 | 0 | 0.0 | 0.0 | 0.00 | 0.05 | 0.00 | 96 | 1010.6 |
| 20260504221838 | 11 | 0 | 0.0 | 0.0 | 0.00 | 0.05 | 0.00 | 97 | 1010.7 |
| 20260504215457 | 11 | 0 | 0.0 | 0.0 | 0.00 | 0.05 | 0.05 | 97 | 1010.9 |
| 20260504214713 | 11 | 0 | 0.0 | 0.0 | 0.00 | 0.05 | 0.05 | 96 | 1010.9 |
| 20260504214146 | 11 | 0 | 0.0 | 0.0 | 0.00 | 0.05 | 0.05 | 96 | 1010.8 |
| 20260504213314 | 11 | 0 | 0.0 | 0.0 | 0.00 | 0.05 | 0.05 | 96 | 1011.0 |
| 20260504212748 | 11 | 0 | 0.0 | 0.0 | 0.00 | 0.05 | 0.05 | 96 | 1011.0 |
| 20260504211119 | 11 | 0 | 0.0 | 0.0 | 0.00 | 0.05 | 0.05 | 95 | 1011.1 |
| 20260504210212 | 11 | 0 | 0.0 | 0.0 | 0.00 | 0.05 | 0.05 | 95 | 1011.1 |
| 20260504205115 | 11 | 0 | 0.0 | 0.0 | 0.00 | 0.05 | 0.05 | 95 | 1011.2 |
| 20260504204557 | 11 | 0 | 0.0 | 0.0 | 0.00 | 0.05 | 0.05 | 95 | 1011.2 |
| 20260504202850 | 11 | 0 | 0.0 | 0.0 | 0.00 | 0.05 | 0.05 | 95 | 1011.2 |
| 20260504202227 | 11 | 0 | 0.0 | 0.0 | 0.00 | 0.05 | 0.05 | 95 | 1011.2 |
| 20260504201504 | 11 | 0 | 0.0 | 0.0 | 0.00 | 0.05 | 0.05 | 96 | 1011.2 |